Date String (YYYY-MM-DD hh:mm:ss) UTC,Instrument flags,Ambient pressure (hPa),Sample flow (lpm),Bypass flow (lpm),Sample temperature (°C),Ambient temperature (°C),ASC tube jacket temperature (°C),LED temperature (°C),Box temperature (°C),Sample RH (%),Span deviation,Mass concentration (μg/m³),Mass concentration (μg/m³),Mass concentration (μg/m³)
DateTimeUTC,F1_M11,P_M11,Q1_M11,Q2_M11,T1_M11,T2_M11,T3_M11,T4_M11,T5_M11,U1_M11,ZSPAN_M11,X0_M11,X2_M11,X1_M11
2022-07-13 20:00:00,,0828.3,5.01,0.00,29.2,27.1,00.0,37.8,31.1,20.9,0000.0,0017.07,0005.96,0004.76
2022-07-13 20:01:00,,0828.4,5.00,0.00,29.2,27.0,00.0,37.8,31.0,20.5,0000.0,0017.50,0005.90,0004.73
2022-07-13 20:02:00,,0828.3,5.00,0.00,29.1,27.2,00.0,37.8,30.9,19.7,0000.0,0017.29,0005.88,0004.69
2022-07-13 20:03:00,,0828.3,4.99,0.00,29.1,27.3,00.0,37.8,31.0,19.7,0000.0,0016.73,0005.84,0004.66
2022-07-13 20:04:00,,0828.2,5.01,0.00,29.1,27.6,00.0,37.8,31.0,19.8,0000.0,0016.17,0005.79,0004.63
2022-07-13 20:05:00,,0828.3,4.99,0.00,29.2,27.8,00.0,37.8,31.1,20.5,0000.0,0015.61,0005.71,0004.61
2022-07-13 20:06:00,,0828.2,5.00,0.00,29.2,27.9,00.0,37.9,31.1,19.7,0000.0,0016.47,0005.63,0004.59
2022-07-13 20:07:00,,0828.2,5.01,0.00,29.2,27.8,00.0,37.9,31.2,19.1,0000.0,0016.56,0005.59,0004.57
2022-07-13 20:08:00,,0828.2,5.00,0.00,29.2,27.2,00.0,37.8,31.1,19.4,0000.0,0016.93,0005.55,0004.55
2022-07-13 20:09:00,,0828.2,5.00,0.00,29.2,27.0,00.0,37.8,31.0,19.4,0000.0,0017.76,0005.58,0004.57
2022-07-13 20:10:00,,0828.2,4.99,0.00,29.1,27.0,00.0,37.8,30.9,20.2,0000.0,0018.82,0005.61,0004.57
2022-07-13 20:11:00,,0828.2,5.00,0.00,29.1,27.2,00.0,37.8,30.9,20.0,0000.0,0018.74,0005.64,0004.55
2022-07-13 20:12:00,,0828.2,5.00,0.00,29.1,27.4,00.0,37.8,30.9,20.0,0000.0,0018.83,0005.68,0004.55
2022-07-13 20:13:00,,0828.2,5.00,0.00,29.1,27.6,00.0,37.8,31.0,19.7,0000.0,0018.62,0005.66,0004.55
2022-07-13 20:14:00,,0828.3,4.99,0.00,29.2,27.8,00.0,37.8,31.1,19.4,0000.0,0017.86,0005.61,0004.55
2022-07-13 20:15:00,,0828.2,5.00,0.00,29.2,28.0,00.0,37.9,31.2,19.4,0000.0,0018.29,0005.52,0004.54
2022-07-13 20:16:00,,0828.3,5.00,0.00,29.2,27.9,00.0,37.8,31.2,19.3,0000.0,0017.77,0005.50,0004.54
2022-07-13 20:17:00,,0828.3,5.00,0.00,29.2,27.2,00.0,37.8,31.1,19.7,0000.0,0016.82,0005.49,0004.54
2022-07-13 20:18:00,,0828.3,5.00,0.00,29.2,26.9,00.0,37.8,31.0,19.6,0000.0,0016.77,0005.49,0004.54
2022-07-13 20:19:00,,0828.3,5.01,0.00,29.1,27.0,00.0,37.8,30.9,19.4,0000.0,0015.81,0005.50,0004.55
2022-07-13 20:20:00,,0828.3,5.00,0.00,29.1,27.2,00.0,37.8,30.9,19.7,0000.0,0015.17,0005.51,0004.54
2022-07-13 20:21:00,,0828.3,5.01,0.00,29.1,27.4,00.0,37.8,30.9,19.4,0000.0,0013.66,0005.52,0004.53
2022-07-13 20:22:00,,0828.3,4.99,0.00,29.1,27.6,00.0,37.8,31.0,19.0,0000.0,0013.45,0005.48,0004.54
2022-07-13 20:23:00,,0828.3,5.00,0.00,29.2,27.8,00.0,37.8,31.1,18.9,0000.0,0012.78,0005.42,0004.54
2022-07-13 20:24:00,,0828.3,5.00,0.00,29.2,28.0,00.0,37.9,31.2,19.1,0000.0,0012.49,0005.41,0004.54
2022-07-13 20:25:00,,0828.3,5.00,0.00,29.2,27.9,00.0,37.8,31.2,18.9,0000.0,0013.07,0005.46,0004.54
2022-07-13 20:26:00,,0828.3,5.01,0.00,29.2,27.4,00.0,37.8,31.1,18.6,0000.0,0013.06,0005.47,0004.53
2022-07-13 20:27:00,,0828.3,5.00,0.00,29.2,27.1,00.0,37.8,31.0,18.8,0000.0,0013.62,0005.46,0004.53
2022-07-13 20:28:00,,0828.3,5.00,0.00,29.2,27.1,00.0,37.8,31.0,18.0,0000.0,0014.18,0005.49,0004.54
2022-07-13 20:29:00,,0828.3,5.00,0.00,29.1,27.2,00.0,37.8,30.9,18.1,0000.0,0013.14,0005.52,0004.55
2022-07-13 20:30:00,,0828.3,5.00,0.00,29.1,27.4,00.0,37.8,30.9,17.7,0000.0,0014.06,0005.52,0004.55
2022-07-13 20:31:00,,0828.3,5.00,0.00,29.2,27.6,00.0,37.8,31.0,17.7,0000.0,0015.29,0005.50,0004.54
2022-07-13 20:32:00,,0828.3,5.00,0.00,29.2,27.8,00.0,37.8,31.1,17.6,0000.0,0016.24,0005.46,0004.53
2022-07-13 20:33:00,,0828.3,5.00,0.00,29.2,28.0,00.0,37.9,31.2,17.5,0000.0,0016.34,0005.43,0004.52
2022-07-13 20:34:00,,0828.3,5.00,0.00,29.3,28.2,00.0,37.9,31.2,17.4,0000.0,0016.29,0005.39,0004.49
2022-07-13 20:35:00,,0828.3,4.99,0.00,29.3,27.8,00.0,37.9,31.2,17.3,0000.0,0016.66,0005.41,0004.48
2022-07-13 20:36:00,,0828.2,5.00,0.00,29.2,27.2,00.0,37.8,31.1,16.9,0000.0,0017.18,0005.39,0004.46
2022-07-13 20:37:00,,0828.4,5.01,0.00,29.2,27.1,00.0,37.8,31.0,17.3,0000.0,0017.23,0005.42,0004.47
2022-07-13 20:38:00,,0828.2,5.01,0.00,29.2,27.2,00.0,37.8,31.0,17.1,0000.0,0017.35,0005.39,0004.46
2022-07-13 20:39:00,,0828.2,4.99,0.00,29.2,27.4,00.0,37.8,31.0,17.5,0000.0,0016.41,0005.35,0004.45
2022-07-13 20:40:00,,0828.2,5.00,0.00,29.2,27.6,00.0,37.8,31.0,17.9,0000.0,0016.13,0005.28,0004.44
2022-07-13 20:41:00,,0828.2,5.01,0.00,29.2,27.8,00.0,37.9,31.1,18.3,0000.0,0015.81,0005.23,0004.43
2022-07-13 20:42:00,,0828.3,5.00,0.00,29.2,27.9,00.0,37.9,31.2,17.6,0000.0,0014.96,0005.21,0004.43
2022-07-13 20:43:00,,0828.2,5.00,0.00,29.3,28.1,00.0,37.9,31.2,16.5,0000.0,0013.85,0005.19,0004.43
2022-07-13 20:44:00,,0828.2,5.00,0.00,29.3,27.8,00.0,37.9,31.2,17.0,0000.0,0013.72,0005.15,0004.43
2022-07-13 20:45:00,,0828.1,5.00,0.00,29.3,27.2,00.0,37.8,31.1,16.5,0000.0,0014.06,0005.16,0004.44
2022-07-13 20:46:00,,0828.2,5.00,0.00,29.2,27.1,00.0,37.8,31.1,17.1,0000.0,0013.68,0005.12,0004.44
2022-07-13 20:47:00,,0828.1,5.00,0.00,29.2,27.2,00.0,37.8,31.0,17.0,0000.0,0012.58,0005.08,0004.44
2022-07-13 20:48:00,,0828.0,4.99,0.00,29.2,27.3,00.0,37.9,30.9,17.1,0000.0,0011.91,0005.04,0004.43
2022-07-13 20:49:00,,0828.0,5.01,0.00,29.2,27.5,00.0,37.9,31.0,17.1,0000.0,0012.50,0005.02,0004.43
2022-07-13 20:50:00,,0828.0,5.00,0.00,29.2,27.7,00.0,37.9,31.1,16.9,0000.0,0012.91,0005.04,0004.42
2022-07-13 20:51:00,,0828.0,5.01,0.00,29.3,27.9,00.0,37.9,31.2,17.3,0000.0,0012.79,0005.07,0004.41
2022-07-13 20:52:00,,0828.0,5.00,0.00,29.3,28.1,00.0,37.9,31.2,17.0,0000.0,0012.13,0005.05,0004.41
2022-07-13 20:53:00,,0828.0,5.01,0.00,29.3,27.8,00.0,37.9,31.2,17.7,0000.0,0012.09,0004.98,0004.38
2022-07-13 20:54:00,,0828.0,4.99,0.00,29.3,27.3,00.0,37.9,31.1,17.5,0000.0,0012.02,0004.95,0004.36
2022-07-13 20:55:00,,0828.0,5.01,0.00,29.2,27.1,00.0,37.8,31.1,17.1,0000.0,0012.15,0004.97,0004.34
2022-07-13 20:56:00,,0828.0,5.00,0.00,29.2,27.2,00.0,37.9,31.0,17.1,0000.0,0011.99,0004.98,0004.32
2022-07-13 20:57:00,,0828.0,5.01,0.00,29.2,27.4,00.0,37.9,31.0,16.5,0000.0,0011.97,0004.97,0004.30
2022-07-13 20:58:00,,0827.9,4.99,0.00,29.2,27.6,00.0,37.9,31.1,16.5,0000.0,0012.03,0004.95,0004.28
2022-07-13 20:59:00,,0828.0,4.99,0.00,29.2,27.8,00.0,37.9,31.1,16.8,0000.0,0011.81,0004.93,0004.26
